When you browse on this site, cookies collect data to enhance your experience and personalize the content and advertising you see.
Visit our Privacy Policy to learn more. By continuing to use the site, you agree to this use of cookies and data.
  • In Hungary
  • List of Countries
  • For 7 days
  • Water Temperature
  • Satellite Maps
  • Weather Map
  • News
  • Weather Widgets
  • user-avatar
    Login

    Hourly Weather Lincoln

    Today, 24 February, Sunday

    Time Temperature Precipitation Wind Pressure Humidity
    00:00 +8°C° 0 mm 2 mps 765 mmHg 65%
    01:00 +9°C° 0 mm 1 mps 764 mmHg 66%
    02:00 +8°C° 0 mm 2 mps 764 mmHg 67%
    03:00 +8°C° 0 mm 2 mps 764 mmHg 69%
    04:00 +7°C° 0 mm 2 mps 764 mmHg 71%
    05:00 +7°C° 0 mm 2 mps 764 mmHg 73%
    06:00 +7°C° 0 mm 2 mps 764 mmHg 74%
    07:00 +7°C° 0 mm 2 mps 763 mmHg 75%
    08:00 +8°C° 0 mm 2 mps 763 mmHg 72%
    09:00 +10°C° 0 mm 2 mps 763 mmHg 68%
    10:00 +13°C° 0 mm 2 mps 763 mmHg 65%
    11:00 +13°C° 0 mm 3 mps 762 mmHg 62%
    12:00 +13°C° 0 mm 3 mps 761 mmHg 59%
    13:00 +14°C° 0 mm 4 mps 761 mmHg 56%
    14:00 +14°C° 0 mm 3 mps 760 mmHg 57%
    15:00 +14°C° 0 mm 3 mps 760 mmHg 58%
    16:00 +14°C° 0 mm 3 mps 759 mmHg 59%
    17:00 +13°C° 0 mm 3 mps 759 mmHg 65%
    18:00 +13°C° 0 mm 2 mps 760 mmHg 71%
    19:00 +11°C° 0 mm 1 mps 760 mmHg 76%
    20:00 +11°C° 0.1 mm 1 mps 760 mmHg 78%
    21:00 +10°C° 0.1 mm 1 mps 760 mmHg 81%
    22:00 +10°C° 0.1 mm 1 mps 760 mmHg 83%
    23:00 +9°C° 0 mm 1 mps 759 mmHg 84%

    Tomorrow, 25 February, Monday

    Time Temperature Precipitation Wind Pressure Humidity
    00:00 +9°C° 0 mm 1 mps 759 mmHg 85%
    01:00 +8°C° 0 mm 2 mps 759 mmHg 86%
    02:00 +8°C° 0.2 mm 2 mps 758 mmHg 86%
    03:00 +8°C° 0.2 mm 2 mps 758 mmHg 85%
    04:00 +8°C° 0.2 mm 2 mps 757 mmHg 84%
    05:00 +8°C° 2.3 mm 2 mps 757 mmHg 86%
    06:00 +8°C° 2.3 mm 2 mps 757 mmHg 88%
    07:00 +7°C° 2.3 mm 3 mps 757 mmHg 89%
    08:00 +8°C° 2.2 mm 3 mps 756 mmHg 88%
    09:00 +7°C° 2.2 mm 4 mps 756 mmHg 87%
    10:00 +7°C° 2.2 mm 5 mps 756 mmHg 86%
    11:00 +8°C° 2.8 mm 5 mps 756 mmHg 86%
    12:00 +8°C° 2.8 mm 6 mps 756 mmHg 85%
    13:00 +8°C° 2.8 mm 6 mps 755 mmHg 85%
    14:00 +8°C° 3.7 mm 6 mps 755 mmHg 87%
    15:00 +8°C° 3.7 mm 6 mps 754 mmHg 88%
    16:00 +8°C° 3.7 mm 6 mps 754 mmHg 90%
    17:00 +8°C° 4.7 mm 6 mps 754 mmHg 90%
    18:00 +9°C° 4.7 mm 7 mps 753 mmHg 90%
    19:00 +9°C° 4.7 mm 7 mps 753 mmHg 90%
    20:00 +9°C° 5.3 mm 7 mps 753 mmHg 90%
    21:00 +9°C° 5.3 mm 8 mps 753 mmHg 90%
    22:00 +9°C° 5.3 mm 8 mps 753 mmHg 90%
    23:00 +9°C° 4.9 mm 8 mps 753 mmHg 90%

    Day after tomorrow, 26 February, Tuesday

    Time Temperature Precipitation Wind Pressure Humidity
    00:00 +7°C° 4.9 mm 8 mps 753 mmHg 89%
    01:00 +7°C° 4.9 mm 8 mps 753 mmHg 89%
    02:00 +8°C° 3.9 mm 7 mps 753 mmHg 90%
    03:00 +8°C° 3.9 mm 7 mps 753 mmHg 91%
    04:00 +8°C° 3.9 mm 7 mps 753 mmHg 92%
    05:00 +8°C° 3.5 mm 6 mps 754 mmHg 92%
    06:00 +7°C° 3.5 mm 6 mps 754 mmHg 92%
    07:00 +7°C° 3.5 mm 6 mps 754 mmHg 91%
    08:00 +8°C° 5.3 mm 6 mps 754 mmHg 92%
    09:00 +8°C° 5.3 mm 6 mps 755 mmHg 92%
    10:00 +8°C° 5.3 mm 6 mps 755 mmHg 93%
    11:00 +8°C° 5.7 mm 6 mps 755 mmHg 92%
    12:00 +8°C° 5.7 mm 6 mps 755 mmHg 92%
    13:00 +9°C° 5.7 mm 6 mps 755 mmHg 92%
    14:00 +9°C° 3 mm 6 mps 754 mmHg 91%
    15:00 +9°C° 3 mm 7 mps 754 mmHg 90%
    16:00 +9°C° 3 mm 7 mps 754 mmHg 89%
    17:00 +9°C° 1.2 mm 7 mps 754 mmHg 88%
    18:00 +9°C° 1.2 mm 8 mps 754 mmHg 86%
    19:00 +9°C° 1.2 mm 8 mps 754 mmHg 85%
    20:00 +9°C° 1.1 mm 8 mps 753 mmHg 86%
    21:00 +9°C° 1.1 mm 8 mps 753 mmHg 87%
    22:00 +9°C° 1.1 mm 8 mps 753 mmHg 88%
    23:00 +9°C° 3.2 mm 8 mps 752 mmHg 89%

    27 February, Wednesday

    Time Temperature Precipitation Wind Pressure Humidity
    00:00 +9°C° 3.2 mm 8 mps 752 mmHg 90%
    01:00 +7°C° 3.2 mm 8 mps 751 mmHg 92%
    02:00 +9°C° 1.5 mm 8 mps 751 mmHg 91%
    03:00 +9°C° 1.5 mm 8 mps 751 mmHg 91%
    04:00 +9°C° 1.5 mm 8 mps 751 mmHg 91%
    05:00 +9°C° 0.6 mm 8 mps 751 mmHg 91%
    06:00 +9°C° 0.6 mm 7 mps 752 mmHg 92%
    07:00 +10°C° 0.6 mm 7 mps 753 mmHg 92%
    08:00 +10°C° 0.7 mm 7 mps 753 mmHg 92%
    09:00 +10°C° 0.7 mm 7 mps 754 mmHg 92%
    10:00 +10°C° 0.7 mm 6 mps 755 mmHg 92%
    11:00 +10°C° 1.1 mm 6 mps 755 mmHg 92%
    12:00 +10°C° 1.1 mm 6 mps 755 mmHg 93%
    13:00 +12°C° 1.1 mm 5 mps 756 mmHg 93%
    14:00 +12°C° 1.1 mm 5 mps 756 mmHg 93%
    15:00 +12°C° 1.1 mm 5 mps 756 mmHg 92%
    16:00 +12°C° 1.1 mm 4 mps 756 mmHg 92%
    17:00 +12°C° 0.5 mm 4 mps 757 mmHg 93%
    18:00 +11°C° 0.5 mm 3 mps 757 mmHg 94%
    19:00 +11°C° 0.5 mm 3 mps 757 mmHg 95%
    20:00 +11°C° 0.2 mm 3 mps 758 mmHg 94%
    21:00 +10°C° 0.2 mm 3 mps 758 mmHg 93%
    22:00 +10°C° 0.2 mm 2 mps 758 mmHg 92%
    23:00 +9°C° 0.3 mm 2 mps 759 mmHg 90%

    28 February, Thursday

    Time Temperature Precipitation Wind Pressure Humidity
    00:00 +9°C° 0.3 mm 2 mps 759 mmHg 89%
    01:00 +8°C° 0.3 mm 2 mps 759 mmHg 87%
    02:00 +8°C° 0.1 mm 2 mps 760 mmHg 87%
    03:00 +8°C° 0.1 mm 1 mps 760 mmHg 87%
    04:00 +8°C° 0.1 mm 1 mps 760 mmHg 87%
    05:00 +7°C° 0 mm 1 mps 761 mmHg 88%
    06:00 +7°C° 0 mm 1 mps 762 mmHg 89%
    07:00 +6°C° 0 mm 1 mps 762 mmHg 90%
    08:00 +8°C° 0 mm 1 mps 762 mmHg 84%
    09:00 +9°C° 0 mm 1 mps 763 mmHg 78%
    10:00 +11°C° 0 mm 1 mps 763 mmHg 71%
    11:00 +11°C° 0 mm 1 mps 763 mmHg 66%
    12:00 +12°C° 0 mm 1 mps 763 mmHg 60%
    13:00 +13°C° 0 mm 1 mps 763 mmHg 55%
    14:00 +13°C° 0 mm 1 mps 762 mmHg 55%
    15:00 +13°C° 0 mm 1 mps 762 mmHg 55%
    16:00 +13°C° 0 mm 1 mps 762 mmHg 55%
    17:00 +11°C° 0 mm 1 mps 762 mmHg 61%
    18:00 +10°C° 0 mm 1 mps 762 mmHg 67%
    19:00 +8°C° 0 mm 1 mps 763 mmHg 72%
    20:00 +6°C° 0 mm 2 mps 763 mmHg 74%
    21:00 +6°C° 0 mm 2 mps 763 mmHg 75%
    22:00 +5°C° 0 mm 2 mps 764 mmHg 76%
    23:00 +5°C° 0 mm 2 mps 764 mmHg 76%

    1 March, Friday

    Time Temperature Precipitation Wind Pressure Humidity
    00:00 +4°C° 0 mm 2 mps 764 mmHg 75%
    01:00 +4°C° 0 mm 2 mps 764 mmHg 75%
    02:00 +4°C° 0 mm 2 mps 764 mmHg 74%
    03:00 +3°C° 0 mm 2 mps 764 mmHg 73%
    04:00 +3°C° 0 mm 2 mps 764 mmHg 72%
    05:00 +3°C° 0 mm 2 mps 764 mmHg 71%
    06:00 +2°C° 0 mm 2 mps 764 mmHg 69%
    07:00 +1°C° 0 mm 3 mps 764 mmHg 68%
    08:00 +4°C° 0 mm 3 mps 764 mmHg 62%
    09:00 +7°C° 0 mm 3 mps 764 mmHg 57%
    10:00 +9°C° 0 mm 3 mps 763 mmHg 51%
    11:00 +11°C° 0 mm 4 mps 763 mmHg 49%
    12:00 +12°C° 0 mm 4 mps 762 mmHg 48%
    13:00 +14°C° 0 mm 4 mps 761 mmHg 46%
    14:00 +14°C° 0 mm 4 mps 761 mmHg 49%
    15:00 +13°C° 0 mm 4 mps 760 mmHg 51%
    16:00 +13°C° 0 mm 4 mps 760 mmHg 54%
    17:00 +12°C° 0 mm 3 mps 760 mmHg 59%
    18:00 +10°C° 0 mm 3 mps 761 mmHg 64%
    19:00 +8°C° 0 mm 2 mps 761 mmHg 69%
    20:00 +8°C° 0 mm 2 mps 761 mmHg 69%
    21:00 +8°C° 0 mm 2 mps 761 mmHg 69%
    22:00 +8°C° 0 mm 1 mps 761 mmHg 69%
    23:00 +8°C° 0 mm 1 mps 761 mmHg 68%
    Show more